BEIDOU-3 M16 (C35)

Last updated on Sat Aug 15 2026 00:03:26 GMT+0000 (Coordinated Universal Time)

1 43647U 18078A 26225.47312815 -.00000056 00000+0 00000+0 0 9996 2 43647 54.0350 297.9743 0006159 36.0758 324.0388 1.86232302 53221
UTC large
Height (km)
Speed (km/s)
/
Latitude / Longitude
Inclination (degrees)
Orbital Period (minutes)
Azimuth
Elevation
Range (km)
Doppler Factor

Next 0 passes for location: London (51.5072 / 0.1276)

No passes found over London.
BEIDOU-3 M16 (C35)